When you browse on this site, cookies collect data to enhance your experience and personalize the content and advertising you see.
Visit our Privacy Policy to learn more. By continuing to use the site, you agree to this use of cookies and data.
  • In Hungary
  • List of Countries
  • For 7 days
  • Water Temperature
  • Weather Map
  • News
  • Weather Widgets
  • user-avatar
    Login

    Hourly Weather Stavnytsya

    Today, 18 August, Sunday

    Time Temperature Precipitation Wind Pressure Humidity
    00:00 +14°C° 0 mm 2 mps 736 mmHg 87%
    01:00 +14°C° 0 mm 2 mps 736 mmHg 88%
    02:00 +14°C° 0 mm 2 mps 736 mmHg 87%
    03:00 +13°C° 0 mm 2 mps 736 mmHg 87%
    04:00 +13°C° 0 mm 2 mps 736 mmHg 88%
    05:00 +13°C° 0 mm 2 mps 736 mmHg 88%
    06:00 +15°C° 0 mm 2 mps 736 mmHg 83%
    07:00 +16°C° 0 mm 2 mps 736 mmHg 77%
    08:00 +19°C° 0 mm 1 mps 736 mmHg 72%
    09:00 +20°C° 0 mm 2 mps 737 mmHg 66%
    10:00 +21°C° 0 mm 2 mps 737 mmHg 60%
    11:00 +23°C° 0 mm 2 mps 737 mmHg 54%
    12:00 +24°C° 0 mm 2 mps 737 mmHg 51%
    13:00 +25°C° 0 mm 2 mps 737 mmHg 48%
    14:00 +25°C° 0 mm 2 mps 737 mmHg 46%
    15:00 +25°C° 0 mm 2 mps 737 mmHg 47%
    16:00 +25°C° 0 mm 2 mps 737 mmHg 49%
    17:00 +25°C° 0 mm 2 mps 737 mmHg 51%
    18:00 +23°C° 0 mm 1 mps 737 mmHg 57%
    19:00 +21°C° 0 mm 1 mps 737 mmHg 62%
    20:00 +18°C° 0 mm 0 mps 737 mmHg 68%
    21:00 +19°C° 0 mm 1 mps 737 mmHg 69%
    22:00 +19°C° 0 mm 1 mps 737 mmHg 69%
    23:00 +17°C° 0 mm 2 mps 737 mmHg 70%

    Tomorrow, 19 August, Monday

    Time Temperature Precipitation Wind Pressure Humidity
    00:00 +17°C° 0 mm 2 mps 737 mmHg 71%
    01:00 +17°C° 0 mm 2 mps 738 mmHg 72%
    02:00 +17°C° 0 mm 2 mps 738 mmHg 73%
    03:00 +16°C° 0 mm 2 mps 738 mmHg 74%
    04:00 +16°C° 0 mm 2 mps 738 mmHg 75%
    05:00 +16°C° 0 mm 2 mps 738 mmHg 76%
    06:00 +18°C° 0 mm 3 mps 738 mmHg 73%
    07:00 +19°C° 0 mm 3 mps 738 mmHg 70%
    08:00 +21°C° 0 mm 3 mps 739 mmHg 66%
    09:00 +22°C° 0 mm 3 mps 739 mmHg 62%
    10:00 +25°C° 0 mm 3 mps 739 mmHg 57%
    11:00 +27°C° 0 mm 3 mps 739 mmHg 52%
    12:00 +27°C° 0 mm 3 mps 739 mmHg 50%
    13:00 +28°C° 0 mm 3 mps 739 mmHg 48%
    14:00 +29°C° 0 mm 2 mps 739 mmHg 47%
    15:00 +29°C° 0 mm 2 mps 739 mmHg 48%
    16:00 +29°C° 0 mm 2 mps 739 mmHg 49%
    17:00 +28°C° 0 mm 1 mps 739 mmHg 50%
    18:00 +27°C° 0 mm 1 mps 739 mmHg 54%
    19:00 +25°C° 0 mm 1 mps 739 mmHg 58%
    20:00 +23°C° 0 mm 1 mps 739 mmHg 62%
    21:00 +22°C° 0 mm 1 mps 739 mmHg 64%
    22:00 +21°C° 0 mm 2 mps 739 mmHg 65%
    23:00 +20°C° 0 mm 2 mps 739 mmHg 67%

    Day after tomorrow, 20 August, Tuesday

    Time Temperature Precipitation Wind Pressure Humidity
    00:00 +20°C° 0 mm 2 mps 740 mmHg 65%
    01:00 +19°C° 0 mm 2 mps 740 mmHg 64%
    02:00 +19°C° 0 mm 2 mps 740 mmHg 62%
    03:00 +18°C° 0 mm 2 mps 740 mmHg 61%
    04:00 +18°C° 0 mm 2 mps 740 mmHg 60%
    05:00 +18°C° 0 mm 2 mps 740 mmHg 59%
    06:00 +19°C° 0 mm 2 mps 740 mmHg 58%
    07:00 +21°C° 0 mm 2 mps 741 mmHg 58%
    08:00 +23°C° 0 mm 2 mps 741 mmHg 58%
    09:00 +25°C° 0 mm 2 mps 741 mmHg 53%
    10:00 +27°C° 0 mm 2 mps 741 mmHg 48%
    11:00 +29°C° 0 mm 2 mps 741 mmHg 43%
    12:00 +29°C° 0 mm 2 mps 741 mmHg 42%
    13:00 +30°C° 0 mm 2 mps 741 mmHg 41%
    14:00 +30°C° 0 mm 2 mps 741 mmHg 39%
    15:00 +30°C° 0 mm 1 mps 741 mmHg 41%
    16:00 +30°C° 0 mm 1 mps 741 mmHg 42%
    17:00 +30°C° 0 mm 1 mps 741 mmHg 43%
    18:00 +28°C° 0 mm 1 mps 741 mmHg 47%
    19:00 +26°C° 0 mm 1 mps 741 mmHg 51%
    20:00 +24°C° 0 mm 1 mps 741 mmHg 55%
    21:00 +23°C° 0 mm 1 mps 741 mmHg 55%
    22:00 +22°C° 0 mm 1 mps 741 mmHg 56%
    23:00 +21°C° 0 mm 2 mps 741 mmHg 57%

    21 August, Wednesday

    Time Temperature Precipitation Wind Pressure Humidity
    00:00 +20°C° 0 mm 2 mps 741 mmHg 57%
    01:00 +20°C° 0 mm 2 mps 741 mmHg 56%
    02:00 +19°C° 0 mm 2 mps 741 mmHg 56%
    03:00 +19°C° 0 mm 2 mps 741 mmHg 57%
    04:00 +19°C° 0 mm 2 mps 741 mmHg 59%
    05:00 +18°C° 0 mm 2 mps 741 mmHg 60%
    06:00 +20°C° 0 mm 2 mps 741 mmHg 60%
    07:00 +21°C° 0 mm 2 mps 741 mmHg 59%
    08:00 +24°C° 0 mm 2 mps 741 mmHg 59%
    09:00 +26°C° 0 mm 2 mps 741 mmHg 54%
    10:00 +27°C° 0 mm 3 mps 741 mmHg 49%
    11:00 +29°C° 0 mm 3 mps 741 mmHg 45%
    12:00 +30°C° 0 mm 2 mps 741 mmHg 42%
    13:00 +30°C° 0 mm 2 mps 741 mmHg 40%
    14:00 +31°C° 0 mm 1 mps 740 mmHg 38%
    15:00 +30°C° 0 mm 1 mps 740 mmHg 39%
    16:00 +30°C° 0 mm 1 mps 740 mmHg 41%
    17:00 +30°C° 0 mm 1 mps 740 mmHg 42%
    18:00 +28°C° 0 mm 1 mps 739 mmHg 46%
    19:00 +26°C° 0 mm 1 mps 739 mmHg 50%
    20:00 +24°C° 0 mm 1 mps 739 mmHg 54%
    21:00 +23°C° 0 mm 1 mps 740 mmHg 55%
    22:00 +23°C° 0 mm 1 mps 740 mmHg 57%
    23:00 +22°C° 0 mm 1 mps 740 mmHg 58%

    22 August, Thursday

    Time Temperature Precipitation Wind Pressure Humidity
    00:00 +21°C° 0 mm 2 mps 740 mmHg 67%
    01:00 +20°C° 0 mm 2 mps 740 mmHg 76%
    02:00 +20°C° 0 mm 3 mps 740 mmHg 84%
    03:00 +20°C° 0 mm 4 mps 740 mmHg 86%
    04:00 +20°C° 0 mm 4 mps 740 mmHg 89%
    05:00 +20°C° 0 mm 5 mps 740 mmHg 91%
    06:00 +20°C° 0 mm 5 mps 741 mmHg 89%
    07:00 +19°C° 0 mm 5 mps 741 mmHg 87%
    08:00 +19°C° 0 mm 5 mps 741 mmHg 85%
    09:00 +19°C° 0 mm 5 mps 741 mmHg 83%
    10:00 +19°C° 0 mm 5 mps 742 mmHg 80%
    11:00 +20°C° 0 mm 5 mps 742 mmHg 77%
    12:00 +20°C° 0 mm 5 mps 742 mmHg 76%
    13:00 +20°C° 0 mm 5 mps 742 mmHg 75%
    14:00 +20°C° 0 mm 5 mps 742 mmHg 75%
    15:00 +20°C° 0 mm 5 mps 742 mmHg 74%
    16:00 +20°C° 0 mm 5 mps 742 mmHg 74%
    17:00 +20°C° 0 mm 5 mps 742 mmHg 74%
    18:00 +19°C° 0 mm 5 mps 742 mmHg 77%
    19:00 +18°C° 0 mm 4 mps 742 mmHg 80%
    20:00 +17°C° 0 mm 4 mps 742 mmHg 83%
    21:00 +16°C° 0 mm 3 mps 742 mmHg 85%
    22:00 +16°C° 0 mm 3 mps 742 mmHg 88%
    23:00 +14°C° 0 mm 3 mps 742 mmHg 90%

    23 August, Friday

    Time Temperature Precipitation Wind Pressure Humidity
    00:00 +14°C° 0 mm 3 mps 742 mmHg 92%
    01:00 +13°C° 0 mm 3 mps 742 mmHg 94%
    02:00 +13°C° 0 mm 3 mps 742 mmHg 95%
    03:00 +13°C° 0 mm 3 mps 742 mmHg 96%
    04:00 +13°C° 0 mm 3 mps 742 mmHg 96%
    05:00 +13°C° 0 mm 3 mps 742 mmHg 97%
    06:00 +14°C° 0 mm 3 mps 742 mmHg 92%
    07:00 +16°C° 0 mm 3 mps 742 mmHg 87%
    08:00 +17°C° 0 mm 4 mps 742 mmHg 82%
    09:00 +18°C° 0 mm 4 mps 742 mmHg 77%
    10:00 +20°C° 0 mm 4 mps 742 mmHg 73%
    11:00 +21°C° 0 mm 4 mps 742 mmHg 68%
    12:00 +22°C° 0 mm 4 mps 742 mmHg 66%
    13:00 +23°C° 0 mm 4 mps 742 mmHg 64%
    14:00 +23°C° 0 mm 4 mps 742 mmHg 62%
    15:00 +23°C° 0 mm 4 mps 742 mmHg 62%
    16:00 +23°C° 0 mm 4 mps 742 mmHg 63%
    17:00 +23°C° 0 mm 4 mps 742 mmHg 64%
    18:00 +21°C° 0 mm 4 mps 742 mmHg 69%
    19:00 +19°C° 0 mm 3 mps 742 mmHg 74%
    20:00 +18°C° 0 mm 3 mps 742 mmHg 79%
    21:00 +17°C° 0 mm 3 mps 742 mmHg 78%
    22:00 +16°C° 0 mm 3 mps 743 mmHg 78%
    23:00 +16°C° 0 mm 3 mps 743 mmHg 78%
    Show more